Regional Weather Roundup
Issued by NWS

Home | Current Version | Previous Version | Text Only | Print | Product List | Glossary Off
Versions: 1 2 3 4 5 6 7 8 9 10 11 12 13 14 15 16 17 18 19 20 21 22 23 24 25 26 27 28 29 30 31 32 33 34 35 36 37 38 39 40 41 42 43 44 45 46 47 48 49 50

000
ASUS45 KBOU 021607
RWRCO

WEATHER ROUNDUP FOR COLORADO
NATIONAL WEATHER SERVICE DENVER/BOULDER CO
1000 AM MDT SAT MAY 02 2015

NOTE: "FAIR" INDICATES FEW OR NO CLOUDS BELOW 12000 FEET WITH NO
SIGNIFICANT WEATHER AND/OR OBSTRUCTIONS TO VISIBILITY.

COZ001>005-013-030-031-021700-
...NORTHWEST COLORADO...

CITY           SKY/WX    TMP DP  RH WIND       PRES   REMARKS
CRAIG          MOSUNNY   60  37  42 E13       30.09F
HAYDEN         MOSUNNY   55  37  50 E9        30.11S
MEEKER         SUNNY     61  35  37 CALM      30.09F
MOUNT WERNER   NOT AVBL
STEAMBOAT SPGS MOSUNNY   54  38  55 SE5       30.12F
WALDEN         PTSUNNY   50  32  50 SW12G22   30.16S
$$

COZ006>008-011-021700-
...WEST CENTRAL VALLEYS...

CITY           SKY/WX    TMP DP  RH WIND       PRES   REMARKS
GRAND JUNCTION SUNNY     65  36  34 VRB6      30.02S
MONTROSE       MOSUNNY   65  36  34 NW6       30.08F
EAGLE          MOSUNNY   54  34  47 CALM      30.14F
RIFLE          SUNNY     60  36  40 CALM      30.06F
DELTA          MOSUNNY   67  35  29 CALM      30.05F
NUCLA          MOSUNNY   63  34  34 W3        30.13R
$$

COZ017>023-064>068-021700-
...SOUTHWEST COLORADO...

CITY           SKY/WX    TMP DP  RH WIND       PRES   REMARKS
DURANGO        MOSUNNY   63  32  31 SE6       30.14F
CORTEZ         SUNNY     66  35  31 W5        30.11R
PAGOSA SPRINGS MOSUNNY   61  23  23 SW3       30.20F
TELLURIDE      PTSUNNY   57  23  27 SE6       30.26F
WOLF CREEK PAS NOT AVBL
$$

COZ009-010-012-014-032>034-037-058>063-021700-
...CENTRAL COLORADO...

CITY           SKY/WX    TMP DP  RH WIND       PRES   REMARKS
ASPEN          SUNNY     59  34  39 N7        30.14F
BUENA VISTA    NOT AVBL
COPPER MTN     PTSUNNY   45  21  39 SW20G28   30.36S
BERTHOUD PASS  FAIR      34  28  80 NW24G33   30.37R WCI  21
COTTONWOOD PAS MOSUNNY   55  28  35 SE6       30.27S
GUNNISON       SUNNY     52  34  50 CALM      30.22F
KREMMLING      MOSUNNY   46  37  71 CALM      30.19F
LEADVILLE      MOSUNNY   51  25  36 CALM      30.24S
MONARCH PASS   SUNNY     39  27  60 SW23G31   30.48S
SALIDA         SUNNY     55  39  55 CALM      30.24F
SUNLIGHT       MOSUNNY   50  28  43 CALM      30.34R
WILKERSON PASS MOSUNNY   45  27  49 SW6       30.36S
$$

COZ069>075-021700-
...SAN LUIS VALLEY/SANGRE DE CRISTO MOUNTAINS...

CITY           SKY/WX    TMP DP  RH WIND       PRES   REMARKS
ALAMOSA        SUNNY     59  32  36 VRB5      30.18F
LA VETA PASS   PTSUNNY   50  28  43 MISG      30.31S
SAGUACHE       SUNNY     55  32  41 S6        30.21S
$$

COZ035-036-038>040-021700-
...NORTHERN COLORADO FRONT RANGE...

CITY           SKY/WX    TMP DP  RH WIND       PRES   REMARKS
DENVER INTL AP PTSUNNY   69  38  32 SW6       30.01R
DMNS CITY PARK   N/A     69  35  29 SE2       30.00F
AURORA         PTSUNNY   67  36  32 S2        30.03S
FRONT RANGE AP PTSUNNY   68  41  37 W8        30.02S
ERIE MUNI ARPT PTSUNNY   66  42  40 S5        29.99F
BOULDER MUN AP PTSUNNY   68  41  37 SE5       29.99S
CENTENNIAL     PTSUNNY   65  38  36 SW7       30.03S
BROOMFIELD     PTSUNNY   64  39  39 CALM      30.03S
FORT COLLINS   PTSUNNY   63  46  55 CALM      30.00S
LONGMONT       PTSUNNY   69  45  41 SE3       30.00S
$$

COZ041-046-047-076>085-087-088-021700-
...PIKES PEAK/PALMER DIVIDE AND SOUTHERN FOOTHILLS...

CITY           SKY/WX    TMP DP  RH WIND       PRES   REMARKS
COLO. SPRINGS  PTSUNNY   66  39  37 CALM      30.07S
A. F. ACADEMY  PTSUNNY   65  31  27 E3        30.08S
ELLICOTT       PTSUNNY  N/A N/A N/A N8        30.05R
FALCON         PTSUNNY   67  30  25 W10       30.11S
FORT CARSON    CLOUDY    67  38  34 N5        30.04S
LIMON          MOSUNNY   71  36  27 N9        30.01S
MONUMENT HILL  PTSUNNY   63  32  31 NW5       30.10S
TRINIDAD       PTSUNNY   68  42  38 W17       30.04F
$$

COZ042>045-048>051-090-091-021700-
...NORTHEAST COLORADO...

CITY           SKY/WX    TMP DP  RH WIND       PRES   REMARKS
GREELEY ARPT   PTSUNNY   61  46  59 CALM      29.99S
AKRON          MOSUNNY   65  51  60 W15       29.96R
BURLINGTON     SUNNY     73  46  38 W12       29.95S
WRAY           SUNNY     70  54  56 SW3       29.92F
STERLING       MOSUNNY   63  57  82 S9        29.92F
HOLYOKE        NOT AVBL
FORT MORGAN    MOSUNNY   59   8  13 SW8       29.97S
$$

COZ086-089-092>099-021700-
...SOUTHEAST COLORADO...

CITY           SKY/WX    TMP DP  RH WIND       PRES   REMARKS
PUEBLO         PTSUNNY   68  45  43 W10       29.99S
LA JUNTA       MOSUNNY   69  49  48 W9        29.97S
LAMAR          MOSUNNY   65  56  72 W9        29.94S
SPRINGFIELD      N/A     72  42  34 CALM      29.97S
$$


USA.gov is the U.S. government's official web portal to all federal, state and local government web resources and services.